Welcome to mirrors.dotsrc.org

All our mirrors of open source software are available via http, https and ftp. More information about our mirrors including statistics and contact information is available on our mirror info pages.

For information about dotsrc.org and our other services please go to our website.

Index of /mirrors/trisquel/pool/main/a/

File Name  ↓ File Size  ↓ Date  ↓ 
Parent directory/--
aspell-hr/-2010-03-10 22:01:42
automake1.9-nonfree/-2010-03-10 22:01:44
acheck-rules-fr/-2010-03-10 22:01:46
add-apt-key/-2010-03-10 22:01:47
apertium-dbus/-2010-03-10 22:01:51
apt-zip/-2010-03-10 22:01:52
argus-client/-2010-03-10 22:01:53
asterisk-prompt-fr-armelle/-2010-03-10 22:01:54
asterisk-prompt-fr-proformatique/-2010-03-10 22:01:54
atsar/-2010-03-10 22:01:54
asterisk-prompt-se/-2010-03-10 22:01:54
athcool/-2010-03-10 22:01:54
asr-manpages/-2010-03-10 22:01:54
atitvout/-2010-03-10 22:01:54
autorun4linuxcd/-2010-03-10 22:01:56
avinfo/-2010-03-10 22:01:56
aspell-hsb/-2010-12-09 17:45:38
atheros-firmware/-2011-04-15 01:30:52
apsfilter/-2011-07-14 15:53:00
aswiki/-2011-07-14 15:53:01
attal-themes/-2011-07-14 15:53:01
attal/-2011-07-14 15:53:01
avrprog/-2011-07-14 15:53:02
anc-api-tools/-2011-07-14 21:41:35
aspell-id/-2011-07-14 21:41:39
asterisk-moh-opsound/-2011-07-14 21:41:41
alice/-2012-01-23 15:23:06
aspell-kk/-2012-01-23 15:23:19
account-plugin-evernote/-2014-02-06 19:33:08
account-plugin-fitbit/-2014-02-06 19:33:08
advene/-2014-02-06 19:33:15
all-knowing-dns/-2014-02-06 19:33:19
archipel-agent-virtualmachine-snapshoting/-2014-02-06 19:33:29
archipel-agent-hypervisor-network/-2014-02-06 19:33:29
archipel-agent-hypervisor-health/-2014-02-06 19:33:29
archipel-agent-virtualmachine-oomkiller/-2014-02-06 19:33:29
archipel-agent-hypervisor-platformrequest/-2014-02-06 19:33:29
archipel-agent-iphone-notification/-2014-02-06 19:33:29
archipel-agent-hypervisor-geolocalization/-2014-02-06 19:33:29
archipel-agent-action-scheduler/-2014-02-06 19:33:29
archipel-agent-vmcasting/-2014-02-06 19:33:30
archipel-agent-virtualmachine-vnc/-2014-02-06 19:33:30
archipel-agent-xmppserver/-2014-02-06 19:33:30
archipel-agent-vmparking/-2014-02-06 19:33:30
automake-1.14/-2014-02-06 19:33:41
automaton/-2014-02-06 19:42:52
android-audiosystem/-2014-02-06 20:13:28
arm64-cross-toolchain-base/-2014-02-26 11:10:03
automake/-2014-03-01 20:21:06
about-distro/-2014-03-01 20:38:36
acegi-security/-2014-03-02 00:05:15
avian/-2014-04-08 09:05:24
amor/-2014-08-24 01:18:26
ardour3/-2015-05-16 05:01:10
adapt/-2016-06-24 19:09:10
adlint/-2016-06-24 19:09:10
amispammer/-2016-06-24 19:09:48
amqp-specs/-2016-06-24 19:09:50
android-permissions/-2016-06-24 19:09:56
angband-doc/-2016-06-24 19:09:57
anything-el/-2016-06-24 19:10:01
apachedex/-2016-06-24 19:10:02
apertium-es-ca/-2016-06-24 19:10:05
apertium-fr-ca/-2016-06-24 19:10:06
apparmor-easyprof-ubuntu/-2016-06-24 19:10:08
apt-spacewalk/-2016-06-24 19:10:10
arriero/-2016-06-24 19:10:19
asciiart/-2016-06-24 19:10:24
asc-music/-2016-06-24 19:10:24
aspell-it/-2016-06-24 19:10:27
assword/-2016-06-24 19:10:29
astromatic/-2016-06-24 19:10:31
auto-upgrade-testing/-2016-06-24 19:11:09
avis/-2016-06-24 19:11:12
awit-dbackup/-2016-06-24 19:11:16
argparse4j/-2016-06-24 19:47:53
asciimathtml/-2016-06-24 19:58:20
arbiterjs/-2016-06-24 19:58:20
assetic/-2016-06-24 20:29:57
aws-sdk-for-php/-2016-06-24 20:29:57
argvalidate/-2016-06-24 20:32:36
appstream-dep11/-2016-06-24 20:36:52
abduco/-2016-06-24 21:04:28
abtransfers/-2016-06-24 21:04:33
account-polld/-2016-06-24 21:04:34
aegisub/-2016-06-24 21:04:49
alter-sequence-alignment/-2016-06-24 21:04:58
aseprite/-2016-06-24 21:05:30
asterisk-testsuite/-2016-06-24 21:05:34
attic/-2016-06-24 21:05:36
awesfx/-2016-06-24 21:05:42
avw.lv2/-2016-06-24 21:05:42
aster/-2016-06-24 21:10:43
account-plugins/-2016-06-24 21:25:19
alberta/-2016-06-24 21:25:25
akonadi1/-2016-06-24 21:25:25
analitza4/-2016-06-24 21:25:29
apache2-mod-xforward/-2016-06-24 21:25:34
appindicator3-sharp/-2016-06-24 21:25:34
autopilot-gtk/-2016-06-24 21:25:54
avis-client-c/-2016-06-24 21:25:56
actor-framework/-2016-06-24 21:26:15
address-book-service/-2016-06-24 21:57:50
address-book-app/-2016-06-24 21:58:33
autopilot-qt/-2016-06-24 21:58:53
appmenu-qt5/-2017-03-11 19:13:09
a2mp3/-2018-04-30 14:44:04
aafigure/-2018-04-30 14:44:04
acm/-2018-04-30 14:44:05
acr38/-2018-04-30 14:44:06
aegis/-2018-04-30 14:44:06
ajaxterm/-2018-04-30 14:44:07
agtl/-2018-04-30 14:44:07
akonadi-googledata/-2018-04-30 14:44:07
amphetamine-data/-2018-04-30 14:44:08
amphetamine/-2018-04-30 14:44:08
aolserver4-nssqlite3/-2018-04-30 14:44:09
aolserver4-nsldap/-2018-04-30 14:44:09
apache-openid/-2018-04-30 14:44:09
anubis/-2018-04-30 14:44:09
aolserver4-nssha1/-2018-04-30 14:44:09
apf/-2018-04-30 14:44:10
apertium-tolk/-2018-04-30 14:44:10
apq/-2018-04-30 14:44:11
apq-postgresql/-2018-04-30 14:44:11
archivemail/-2018-04-30 14:44:12
apt-forktracer/-2018-04-30 14:44:12
arpalert/-2018-04-30 14:44:13
arora/-2018-04-30 14:44:13
asql/-2018-04-30 14:44:14
asunder/-2018-04-30 14:44:14
aspell-sv/-2018-04-30 14:44:14
aspell-hi/-2018-04-30 14:44:14
aspell-tl/-2018-04-30 14:44:14
aspell-pl/-2018-04-30 14:44:14
atp/-2018-04-30 14:44:15
audacious-dumb/-2018-04-30 14:44:15
auth-client-config/-2018-04-30 14:44:16
autodia/-2018-04-30 14:44:16
autotrash/-2018-04-30 14:44:16
auth2db/-2018-04-30 14:44:16
azureus/-2018-04-30 14:44:17
ayttm/-2018-04-30 14:44:17
archmage/-2019-01-19 06:01:14
atf-allwinner/-2019-04-14 18:02:54
abi-monitor/-2019-04-14 21:48:37
abi-dumper/-2019-04-14 21:48:37
abicheck/-2019-04-14 21:48:38
abi-tracker/-2019-04-14 21:48:38
acidrip/-2019-04-14 21:48:53
ack/-2019-04-14 21:48:53
acme-tiny/-2019-04-14 21:49:31
acpi-call/-2019-04-14 21:49:32
acr/-2019-04-14 21:49:32
adequate/-2019-04-14 21:49:38
adminer/-2019-04-14 21:49:39
adql/-2019-04-14 21:49:41
adv-17v35x/-2019-04-14 21:49:41
adwaita-icon-theme/-2019-04-14 21:49:45
afew/-2019-04-14 21:49:47
afl-cov/-2019-04-14 21:49:47
aft/-2019-04-14 21:49:48
aiscm/-2019-04-14 21:49:55
albatross-gtk-theme/-2019-04-14 21:49:58
aladin/-2019-04-14 21:49:58
algotutor/-2019-04-14 21:49:59
alot/-2019-04-14 21:50:04
android-headers/-2019-04-14 21:50:44
android-sdk-helper/-2019-04-14 21:50:45
ansible-lint/-2019-04-14 21:50:51
ansiweather/-2019-04-14 21:50:51
apertium-arg/-2019-04-14 21:51:05
apertium-apy/-2019-04-14 21:51:05
apertium-af-nl/-2019-04-14 21:51:05
apertium-arg-cat/-2019-04-14 21:51:06
apertium-bel/-2019-04-14 21:51:06
apertium-bel-rus/-2019-04-14 21:51:07
apertium-br-fr/-2019-04-14 21:51:07
apertium-ca-it/-2019-04-14 21:51:08
apertium-cat/-2019-04-14 21:51:08
apertium-crh-tur/-2019-04-14 21:51:09
apertium-cat-srd/-2019-04-14 21:51:09
apertium-cy-en/-2019-04-14 21:51:09
apertium-crh/-2019-04-14 21:51:09
apertium-dan-nor/-2019-04-14 21:51:10
apertium-dan/-2019-04-14 21:51:10
apertium-en-ca/-2019-04-14 21:51:11
apertium-en-es/-2019-04-14 21:51:11
apertium-en-gl/-2019-04-14 21:51:11
apertium-eo-ca/-2019-04-14 21:51:12
apertium-eo-es/-2019-04-14 21:51:12
apertium-eo-fr/-2019-04-14 21:51:12
apertium-eo-en/-2019-04-14 21:51:12
apertium-es-gl/-2019-04-14 21:51:13
apertium-es-ast/-2019-04-14 21:51:13
apertium-es-pt/-2019-04-14 21:51:13
apertium-eu-es/-2019-04-14 21:51:14
apertium-eu-en/-2019-04-14 21:51:14
apertium-es-ro/-2019-04-14 21:51:14
apertium-fr-es/-2019-04-14 21:51:14
apertium-fra/-2019-04-14 21:51:15
apertium-fra-cat/-2019-04-14 21:51:15
apertium-hbs-eng/-2019-04-14 21:51:16
apertium-hbs/-2019-04-14 21:51:16
apertium-hbs-mkd/-2019-04-14 21:51:16
apertium-hbs-slv/-2019-04-14 21:51:17
apertium-hin/-2019-04-14 21:51:17
apertium-is-sv/-2019-04-14 21:51:18
apertium-ita/-2019-04-14 21:51:18
apertium-isl/-2019-04-14 21:51:18
apertium-isl-eng/-2019-04-14 21:51:18
apertium-id-ms/-2019-04-14 21:51:18
apertium-kaz-tat/-2019-04-14 21:51:19
apertium-mk-bg/-2019-04-14 21:51:19
apertium-kaz/-2019-04-14 21:51:19
apertium-nno/-2019-04-14 21:51:20
apertium-mk-en/-2019-04-14 21:51:20
apertium-mlt-ara/-2019-04-14 21:51:20
apertium-nno-nob/-2019-04-14 21:51:21
apertium-oc-ca/-2019-04-14 21:51:22
apertium-nob/-2019-04-14 21:51:22
apertium-pt-gl/-2019-04-14 21:51:23
apertium-oc-es/-2019-04-14 21:51:23
apertium-pt-ca/-2019-04-14 21:51:23
apertium-rus/-2019-04-14 21:51:24
apertium-sme-nob/-2019-04-14 21:51:25
apertium-spa/-2019-04-14 21:51:25
apertium-spa-cat/-2019-04-14 21:51:26
apertium-spa-ita/-2019-04-14 21:51:26
apertium-spa-arg/-2019-04-14 21:51:26
apertium-srd-ita/-2019-04-14 21:51:27
apertium-srd/-2019-04-14 21:51:27
apertium-swe/-2019-04-14 21:51:28
apertium-swe-dan/-2019-04-14 21:51:28
apertium-swe-nor/-2019-04-14 21:51:29
apertium-tat/-2019-04-14 21:51:29
apertium-urd/-2019-04-14 21:51:30
apf-firewall/-2019-04-14 21:51:30
apertium-ukr/-2019-04-14 21:51:30
apertium-urd-hin/-2019-04-14 21:51:30
apertium-tur/-2019-04-14 21:51:30
api-sanity-checker/-2019-04-14 21:51:31
apoo/-2019-04-14 21:51:32
apparmor-profiles-extra/-2019-04-14 21:51:32
apprecommender/-2019-04-14 21:51:34
apt-transport-s3/-2019-04-14 21:51:36
apt-listdifferences/-2019-04-14 21:51:36
apt-show-source/-2019-04-14 21:51:36
apt-transport-tor/-2019-04-14 21:51:36
apt-dater-host/-2019-04-14 21:51:36
apt-venv/-2019-04-14 21:51:36
aptitude-robot/-2019-04-14 21:51:37
arc-theme/-2019-04-14 21:51:41
archipel-core/-2019-04-14 21:51:42
arch-install-scripts/-2019-04-14 21:51:42
arch-test/-2019-04-14 21:51:42
arden/-2019-04-14 21:51:42
arcanist-clang-format-linter/-2019-04-14 21:51:42
archmbox/-2019-04-14 21:51:42
arduino-mighty-1284p/-2019-04-14 21:51:44
argonaut/-2019-04-14 21:51:44
argagg/-2019-04-14 21:51:44
ariba/-2019-04-14 21:51:47
artfastqgenerator/-2019-04-14 21:51:50
artemis/-2019-04-14 21:51:50
asciio/-2019-04-14 21:51:56
asciidoctor/-2019-04-14 21:51:56
asciinema/-2019-04-14 21:51:56
ask/-2019-04-14 21:51:58
aspell-br/-2019-04-14 21:52:07
aspell-el/-2019-04-14 21:52:08
aspell-cy/-2019-04-14 21:52:08
aspell-is/-2019-04-14 21:52:09
aspell-kn/-2019-04-14 21:52:09
aspell-ga/-2019-04-14 21:52:09
aspell-hu/-2019-04-14 21:52:09
aspell-fr/-2019-04-14 21:52:09
aspell-ml/-2019-04-14 21:52:10
aspell-pt/-2019-04-14 21:52:12
aspell-pa/-2019-04-14 21:52:12
aspell-sl/-2019-04-14 21:52:13
aspell-sk/-2019-04-14 21:52:13
assemblytics/-2019-04-14 21:52:14
aspell-uz/-2019-04-14 21:52:14
asterisk-prompt-es-co/-2019-04-14 21:52:36
autobahn-cpp/-2019-04-14 21:52:50
auto-apt-proxy/-2019-04-14 21:52:50
autoconf2.64/-2019-04-14 21:52:51
autoconf-dickey/-2019-04-14 21:52:51
autodep8/-2019-04-14 21:52:52
automake-1.15/-2019-04-14 21:52:53
automx/-2019-04-14 21:52:53
autopsy/-2019-04-14 21:52:53
autoproject/-2019-04-14 21:52:53
autorandr/-2019-04-14 21:52:54
averell/-2019-04-14 21:52:54
autoradio/-2019-04-14 21:52:54
autosuspend/-2019-04-14 21:52:54
autorevision/-2019-04-14 21:52:54
aws-shell/-2019-04-14 21:52:58
android-platform-external-doclava/-2019-04-14 22:18:25
ace-link/-2019-04-14 22:22:58
ace-popup-menu/-2019-04-14 22:22:58
aggressive-indent-mode/-2019-04-14 22:22:59
ace-window/-2019-04-14 22:22:59
apiwrap-el/-2019-04-14 22:22:59
auto-complete-el/-2019-04-14 22:23:00
assess-el/-2019-04-14 22:23:00
avy-menu/-2019-04-14 22:23:00
avy/-2019-04-14 22:23:00
archvsync/-2019-04-14 22:43:02
accessodf/-2019-04-14 23:41:55
activemq-activeio/-2019-04-14 23:41:59
aether/-2019-04-14 23:42:08
aether-ant-tasks/-2019-04-14 23:42:08
airlift-airline/-2019-04-14 23:42:10
android-platform-tools-analytics-library/-2019-04-14 23:42:21
androidsdk-tools/-2019-04-14 23:42:22
antelope/-2019-04-14 23:42:22
antlr3.2/-2019-04-14 23:42:23
apache-directory-api/-2019-04-14 23:42:24
apache-directory-jdbm/-2019-04-14 23:42:24
appconfig/-2019-04-14 23:42:31
assertj-core/-2019-04-14 23:43:10
at-at-clojure/-2019-04-14 23:43:12
autocomplete/-2019-04-14 23:43:22
avro-java/-2019-04-14 23:43:27
axmlrpc/-2019-04-14 23:43:28
apache-curator/-2019-04-14 23:48:03
android-platform-tools-base/-2019-04-14 23:58:19
animate.css/-2019-04-15 00:00:38
angular.js/-2019-04-15 00:00:38
android-platform-external-jsilver/-2019-04-15 00:00:54
apache-log4j-extras1.2/-2019-04-15 00:02:20
apache-log4j2/-2019-04-15 00:02:22
airlift-slice/-2019-04-15 00:24:29
abego-treelayout/-2019-04-15 00:32:43
accelio/-2019-04-15 00:40:03
acorn/-2019-04-15 00:56:30
autosize.js/-2019-04-15 00:56:31
autopep8/-2019-04-15 01:10:35
actdiag/-2019-04-15 01:21:14
aiohttp-jinja2/-2019-04-15 01:21:15
aiohttp-mako/-2019-04-15 01:21:15
aiopg/-2019-04-15 01:21:15
aiofiles/-2019-04-15 01:21:15
aiocoap/-2019-04-15 01:21:15
aiodns/-2019-04-15 01:21:15
aiohttp-cors/-2019-04-15 01:21:15
aioprocessing/-2019-04-15 01:21:16
aioredis/-2019-04-15 01:21:16
alabaster/-2019-04-15 01:21:16
aiozmq/-2019-04-15 01:21:16
aioxmlrpc/-2019-04-15 01:21:16
ansi/-2019-04-15 01:21:17
anosql/-2019-04-15 01:21:17
api-hour/-2019-04-15 01:21:17
aplpy/-2019-04-15 01:21:17
apipkg/-2019-04-15 01:21:17
apscheduler/-2019-04-15 01:21:18
appdirs/-2019-04-15 01:21:18
astroplan/-2019-04-15 01:21:20
asn1crypto/-2019-04-15 01:21:20
astroml/-2019-04-15 01:21:20
astroid/-2019-04-15 01:21:20
astral/-2019-04-15 01:21:20
astrodendro/-2019-04-15 01:21:20
astroquery/-2019-04-15 01:21:21
astropy-helpers/-2019-04-15 01:21:21
automat/-2019-04-15 01:21:22
ansible-tower-cli/-2019-04-15 01:28:32
android-platform-tools-swt/-2019-04-15 02:13:09
aa3d/-2019-04-15 02:29:02
abci/-2019-04-15 02:29:03
ableton-link/-2019-04-15 02:29:08
abr2gbr/-2019-04-15 02:29:09
abootimg/-2019-04-15 02:29:09
acbuild/-2019-04-15 02:29:10
abx/-2019-04-15 02:29:10
acedb/-2019-04-15 02:29:12
achilles/-2019-04-15 02:29:25
acorn-fdisk/-2019-04-15 02:30:05
aconnectgui/-2019-04-15 02:30:05
acmetool/-2019-04-15 02:30:05
actiona/-2019-04-15 02:30:06
acpitool/-2019-04-15 02:30:06
adabrowse/-2019-04-15 02:30:07
adapterremoval/-2019-04-15 02:30:08
adlibtracker2/-2019-04-15 02:30:09
adcli/-2019-04-15 02:30:09
adjtimex/-2019-04-15 02:30:09
adwaita-qt/-2019-04-15 02:30:13
aegean/-2019-04-15 02:30:14
aes2501-wy/-2019-04-15 02:30:14
aesfix/-2019-04-15 02:30:15
aeskeyfind/-2019-04-15 02:30:15
aespipe/-2019-04-15 02:30:17
aevol/-2019-04-15 02:30:17
aewm++/-2019-04-15 02:30:18
aewan/-2019-04-15 02:30:18
aewm++-goodies/-2019-04-15 02:30:18
afl/-2019-04-15 02:30:21
air-quality-sensor/-2019-04-15 02:30:28
aircrack-ng/-2019-04-15 02:30:29
airstrike/-2019-04-15 02:30:29
akonadiconsole/-2019-04-15 02:30:31
ale/-2019-04-15 02:30:34
aldo/-2019-04-15 02:30:34
alfa/-2019-04-15 02:30:36
alfred/-2019-04-15 02:30:36
algobox/-2019-04-15 02:30:36
alltray/-2019-04-15 02:30:41
allure/-2019-04-15 02:30:42
alsamixergui/-2019-04-15 02:30:44
alsoft-conf/-2019-04-15 02:30:45
alt-key/-2019-04-15 02:30:46
altermime/-2019-04-15 02:30:46
alttab/-2019-04-15 02:30:54
amideco/-2019-04-15 02:31:19
amiga-fdisk/-2019-04-15 02:31:19
ams/-2019-04-15 02:31:20
ampr-ripd/-2019-04-15 02:31:20
anagramarama/-2019-04-15 02:31:23
andi/-2019-04-15 02:31:24
and/-2019-04-15 02:31:24
android-androresolvd/-2019-04-15 02:31:26
androguard/-2019-04-15 02:31:26
android-tools/-2019-04-15 02:31:30
anomaly/-2019-04-15 02:31:32
anope/-2019-04-15 02:31:33
antpm/-2019-04-15 02:31:36
aoetools/-2019-04-15 02:31:51
aolserver4-nsopenssl/-2019-04-15 02:31:53
aolserver4-nsmysql/-2019-04-15 02:31:53
ap-utils/-2019-04-15 02:31:54
apachetop/-2019-04-15 02:31:54
apertium-lex-tools/-2019-04-15 02:31:56
apitrace/-2019-04-15 02:31:57
apngdis/-2019-04-15 02:31:59
apngasm/-2019-04-15 02:31:59
apngopt/-2019-04-15 02:31:59
apparix/-2019-04-15 02:32:00
appstream-generator/-2019-04-15 02:32:02
aprx/-2019-04-15 02:32:03
aptsh/-2019-04-15 02:32:06
aptly/-2019-04-15 02:32:06
apulse/-2019-04-15 02:32:06
apwal/-2019-04-15 02:32:07
aragorn/-2019-04-15 02:32:09
arachne-pnr/-2019-04-15 02:32:09
arc-gui-clients/-2019-04-15 02:32:11
arctica-greeter/-2019-04-15 02:32:12
argus-clients/-2019-04-15 02:32:16
argus/-2019-04-15 02:32:17
aribas/-2019-04-15 02:32:21
armagetronad/-2019-04-15 02:32:24
arptables/-2019-04-15 02:32:25
array-info/-2019-04-15 02:32:26
art-nextgen-simulation-tools/-2019-04-15 02:32:27
artikulate/-2019-04-15 02:32:28
ascd/-2019-04-15 02:32:29
ascii2binary/-2019-04-15 02:32:30
asciijump/-2019-04-15 02:32:30
aseqjoy/-2019-04-15 02:32:32
aseba/-2019-04-15 02:32:32
asmix/-2019-04-15 02:32:33
asp/-2019-04-15 02:32:34
asn1c/-2019-04-15 02:32:34
asmixer/-2019-04-15 02:32:34
asterisk-espeak/-2019-04-15 02:32:37
aspic/-2019-04-15 02:32:37
asterisk-opus/-2019-04-15 02:32:38
asylum/-2019-04-15 02:32:38
asterisk-flite/-2019-04-15 02:32:38
atig/-2019-04-15 02:32:41
athena-jot/-2019-04-15 02:32:41
atheme-services/-2019-04-15 02:32:41
atlc/-2019-04-15 02:32:41
atomicparsley/-2019-04-15 02:32:42
ats2-lang/-2019-04-15 02:32:43
audiotools/-2019-04-15 02:32:46
auralquiz/-2019-04-15 02:32:47
aurora/-2019-04-15 02:32:47
aumix/-2019-04-15 02:32:47
augustus/-2019-04-15 02:32:47
autoclass/-2019-04-15 02:32:48
auto-07p/-2019-04-15 02:32:48
autofdo/-2019-04-15 02:32:49
autolog/-2019-04-15 02:32:51
avce00/-2019-04-15 02:32:53
aview/-2019-04-15 02:32:54
avr-evtd/-2019-04-15 02:32:57
awardeco/-2019-04-15 02:32:58
avrp/-2019-04-15 02:32:58
axe-demultiplexer/-2019-04-15 02:33:00
axel/-2019-04-15 02:33:00
axmail/-2019-04-15 02:33:11
ayatana-indicator-session/-2019-04-15 02:33:12
ayatana-indicator-application/-2019-04-15 02:33:12
ayatana-indicator-power/-2019-04-15 02:33:12
aylet/-2019-04-15 02:33:12
ayatana-indicator-printers/-2019-04-15 02:33:12
audiocd-kio/-2019-04-15 03:55:40
akonadi-calendar-tools/-2019-04-15 03:56:25
afflib/-2019-04-15 03:59:52
aff4/-2019-04-15 03:59:52
aften/-2019-04-15 03:59:53
airspy-host/-2019-04-15 03:59:57
airspyhf/-2019-04-15 03:59:57
akonadi4/-2019-04-15 04:00:01
alkimia/-2019-04-15 04:00:08
allegro5/-2019-04-15 04:00:10
alljoyn-core-1504/-2019-04-15 04:00:16
alljoyn-core-1509/-2019-04-15 04:00:18
alljoyn-gateway-1504/-2019-04-15 04:00:21
alljoyn-core-1604/-2019-04-15 04:00:21
alljoyn-services-1504/-2019-04-15 04:00:21
alljoyn-thin-client-1604/-2019-04-15 04:00:22
alljoyn-thin-client-1504/-2019-04-15 04:00:22
alljoyn-thin-client-1509/-2019-04-15 04:00:22
alljoyn-services-1509/-2019-04-15 04:00:22
alljoyn-services-1604/-2019-04-15 04:00:22
anfo/-2019-04-15 04:00:28
anet/-2019-04-15 04:00:28
aoflagger/-2019-04-15 04:00:31
appmenu-gtk-module/-2019-04-15 04:00:46
apophenia/-2019-04-15 04:00:46
appstream/-2019-04-15 04:00:47
appstream-glib/-2019-04-15 04:00:47
argon2/-2019-04-15 04:00:53
aribb24/-2019-04-15 04:00:55
armci-mpi/-2019-04-15 04:00:56
arrayfire/-2019-04-15 04:00:59
asl/-2019-04-15 04:01:07
alsa-plugins-extra/-2019-04-15 04:01:09
atril/-2019-04-15 04:01:21
avro-c/-2019-04-15 04:01:39
akonadi-calendar/-2019-04-15 04:17:00
akonadi-mime/-2019-04-15 04:17:01
akonadi-notes/-2019-04-15 04:17:01
akonadi-search/-2019-04-15 04:17:02
attica-kf5/-2019-04-15 04:17:03
akonadi-contacts/-2019-04-15 04:17:05
akonadi-import-wizard/-2019-04-15 04:17:30
allegro4.4/-2019-04-15 04:20:06
almond/-2019-04-15 04:36:54
amcheck/-2019-04-15 04:44:50
astrometry.net/-2019-04-15 04:46:20
autopilot-legacy/-2019-04-15 04:46:21
abstract-rendering/-2019-04-15 04:50:13
amp/-2019-04-15 04:50:14
astroml-addons/-2019-04-15 04:50:15
astlib/-2019-04-15 04:50:15
autopilot/-2019-04-15 04:50:16
asyncpg/-2019-04-15 04:50:16
astropy/-2019-04-15 04:50:16
astroscrappy/-2019-04-15 04:50:16
accounts-qml-module/-2019-04-15 04:55:42
acepack/-2019-04-15 04:57:03
apktool/-2019-04-24 05:04:53
afterburner.fx/-2019-04-24 05:05:19
android-platform-libcore/-2019-04-24 05:05:21
android-framework-23/-2019-04-24 05:05:21
angular-maven-plugin/-2019-04-24 05:05:21
android-platform-frameworks-data-binding/-2019-04-24 05:05:21
antlr4/-2019-04-24 05:05:21
asm/-2019-04-24 05:05:23
apache-directory-server/-2019-04-24 05:05:23
android-platform-tools-apksig/-2019-04-24 05:05:23
aspectj/-2019-04-24 05:05:25
aspectj-maven-plugin/-2019-04-24 05:05:25
android-platform-frameworks-native/-2019-04-24 05:07:59
android-platform-libnativehelper/-2019-04-24 05:07:59
android-platform-system-tools-aidl/-2019-04-24 05:07:59
android-platform-external-libselinux/-2019-04-24 05:07:59
android-platform-external-boringssl/-2019-04-24 05:07:59
android-platform-art/-2019-04-24 05:08:00
android-platform-dalvik/-2019-04-24 05:08:00
android-platform-development/-2019-04-24 05:08:00
android-platform-external-libunwind/-2019-04-24 05:08:00
android-platform-system-extras/-2019-04-24 05:08:00
android-sdk-meta/-2019-04-24 05:08:00
android-platform-system-core/-2019-04-24 05:08:00
android-platform-build/-2019-04-24 05:09:18
android-platform-frameworks-base/-2019-04-24 05:09:18
aodh/-2019-09-05 05:07:41
aiorpcx/-2020-01-07 06:02:39
ayatana-ido/-2020-03-27 06:00:44
a11y-profile-manager/-2020-04-21 05:02:57
app-install-data/-2020-05-02 05:06:00
abraca/-2020-05-30 22:36:49
a7xpg/-2020-05-30 22:36:49
a56/-2020-05-30 22:36:49
abacas/-2020-05-30 22:36:49
aalib/-2020-05-30 22:36:49
abgate/-2020-05-30 22:36:49
aaphoto/-2020-05-30 22:36:49
abinit/-2020-05-30 22:36:49
accerciser/-2020-05-30 22:36:49
a52dec/-2020-05-30 22:36:49
abind/-2020-05-30 22:36:49
abook/-2020-05-30 22:36:49
abcde/-2020-05-30 22:36:49
abiword/-2020-05-30 22:36:49
a2ps/-2020-05-30 22:36:49
abi-compliance-checker/-2020-05-30 22:36:49
abntex/-2020-05-30 22:36:49
a2jmidid/-2020-05-30 22:36:49
ac100-tarball-installer/-2020-05-30 22:36:49
abcm2ps/-2020-05-30 22:36:49
abe/-2020-05-30 22:36:49
abcmidi/-2020-05-30 22:36:49
aac-tactics/-2020-05-30 22:36:49
access-modifier-checker/-2020-05-30 22:36:49
acheck/-2020-05-30 22:36:50
acl2/-2020-05-30 22:36:50
acsccid/-2020-05-30 22:36:50
aces3/-2020-05-30 22:36:50
acpitail/-2020-05-30 22:36:50
acpi/-2020-05-30 22:36:50
acpica-unix/-2020-05-30 22:36:50
acheck-rules/-2020-05-30 22:36:50
acfax/-2020-05-30 22:36:50
ack-grep/-2020-05-30 22:36:50
ace-of-penguins/-2020-05-30 22:36:50
ace/-2020-05-30 22:36:50
acoustid-fingerprinter/-2020-05-30 22:36:50
actionaz/-2020-05-30 22:36:50
acpid/-2020-05-30 22:36:50
aclock.app/-2020-05-30 22:36:50
accountsservice/-2020-05-30 22:36:50
acl/-2020-05-30 22:36:50
acct/-2020-05-30 22:36:50
acpi-support/-2020-05-30 22:36:50
activity-log-manager/-2020-05-30 22:36:51
activemq/-2020-05-30 22:36:51
activemq-protobuf/-2020-05-30 22:36:51
activiz.net/-2020-05-30 22:36:53
adplug/-2020-05-30 22:36:54
aephea/-2020-05-30 22:36:54
adasockets/-2020-05-30 22:36:54
adios/-2020-05-30 22:36:54
adolc/-2020-05-30 22:36:54
aha/-2020-05-30 22:36:54
admesh/-2020-05-30 22:36:54
afuse/-2020-05-30 22:36:54
ahven/-2020-05-30 22:36:54
adun.app/-2020-05-30 22:36:54
adanaxisgpl/-2020-05-30 22:36:54
aggregate/-2020-05-30 22:36:54
afnix/-2020-05-30 22:36:54
affiche/-2020-05-30 22:36:54
adacgi/-2020-05-30 22:36:54
adzapper/-2020-05-30 22:36:54
ada-reference-manual/-2020-05-30 22:36:54
agda/-2020-05-30 22:36:54
agg/-2020-05-30 22:36:54
afpfs-ng/-2020-05-30 22:36:54
advancecomp/-2020-05-30 22:36:54
aewm/-2020-05-30 22:36:54
aeolus/-2020-05-30 22:36:54
adacontrol/-2020-05-30 22:36:54
aghermann/-2020-05-30 22:36:54
adium-theme-ubuntu/-2020-05-30 22:36:54
adonthell/-2020-05-30 22:36:54
advi/-2020-05-30 22:36:54
addresses-for-gnustep/-2020-05-30 22:36:54
adduser/-2020-05-30 22:36:54
aglfn/-2020-05-30 22:36:54
agda-stdlib/-2020-05-30 22:36:54
agedu/-2020-05-30 22:36:54
adplay/-2020-05-30 22:36:54
aeskulap/-2020-05-30 22:36:54
adonthell-data/-2020-05-30 22:36:54
agave/-2020-05-30 22:36:54
afterstep/-2020-05-30 22:36:54
ahcpd/-2020-05-30 22:36:54
agenda.app/-2020-05-30 22:36:54
adns/-2020-05-30 22:36:54
airport-utils/-2020-05-30 22:36:55
almanah/-2020-05-30 22:36:55
alex4/-2020-05-30 22:36:55
alevt/-2020-05-30 22:36:55
aide/-2020-05-30 22:36:55
aj-snapshot/-2020-05-30 22:36:55
alleyoop/-2020-05-30 22:36:55
alsa-oss/-2020-05-30 22:36:55
alien/-2020-05-30 22:36:55
alarm-clock-applet/-2020-05-30 22:36:55
alsa-lib/-2020-05-30 22:36:55
akonadi/-2020-05-30 22:36:55
alienblaster/-2020-05-30 22:36:55
algol68g/-2020-05-30 22:36:55
aiksaurus/-2020-05-30 22:36:55
alien-hunter/-2020-05-30 22:36:55
aliki/-2020-05-30 22:36:55
alac-decoder/-2020-05-30 22:36:55
alarm-clock/-2020-05-30 22:36:55
aisleriot/-2020-05-30 22:36:55
alliance/-2020-05-30 22:36:55
alglib/-2020-05-30 22:36:55
alacarte/-2020-05-30 22:36:55
albatross/-2020-05-30 22:36:55
alqalam/-2020-05-30 22:36:55
alpine/-2020-05-30 22:36:55
alex/-2020-05-30 22:36:55
akuma/-2020-05-30 22:36:55
alsa-driver/-2020-05-30 22:36:55
aiccu/-2020-05-30 22:36:55
alt-ergo/-2020-05-30 22:36:56
alsaequal/-2020-05-30 22:36:56
amule-adunanza/-2020-05-30 22:36:56
amora-server/-2020-05-30 22:36:56
amsn/-2020-05-30 22:36:56
ambdec/-2020-05-30 22:36:56
ample/-2020-05-30 22:36:56
amoebax/-2020-05-30 22:36:56
amavisd-milter/-2020-05-30 22:36:56
amarok/-2020-05-30 22:36:56
ampsharp/-2020-05-30 22:36:56
amule/-2020-05-30 22:36:56
amavisd-new/-2020-05-30 22:36:56
alsa-tools/-2020-05-30 22:36:56
altos/-2020-05-30 22:36:56
amb-plugins/-2020-05-30 22:36:56
am-utils/-2020-05-30 22:36:56
ampache-themes/-2020-05-30 22:36:56
alsaplayer/-2020-05-30 22:36:56
amule-emc/-2020-05-30 22:36:56
alure/-2020-05-30 22:36:56
alsa-utils/-2020-05-30 22:36:56
altree/-2020-05-30 22:36:56
amtterm/-2020-05-30 22:36:56
amanda/-2020-05-30 22:36:56
amap-align/-2020-05-30 22:36:56
amsynth/-2020-05-30 22:36:56
amide/-2020-05-30 22:36:56
alsa-plugins/-2020-05-30 22:36:56
anacron/-2020-05-30 22:36:56
an/-2020-05-30 22:36:56
ampache/-2020-05-30 22:36:56
ampliconnoise/-2020-05-30 22:36:56
anki/-2020-05-30 22:36:57
anjuta-extras/-2020-05-30 22:36:57
analog/-2020-05-30 22:36:57
anjuta/-2020-05-30 22:36:57
animals/-2020-05-30 22:36:57
angrydd/-2020-05-30 22:36:57
antlr-maven-plugin/-2020-05-30 22:36:57
anna/-2020-05-30 22:36:57
angband/-2020-05-30 22:36:57
ants/-2020-05-30 22:36:57
anon-proxy/-2020-05-30 22:36:57
aoeui/-2020-05-30 22:36:57
ann/-2020-05-30 22:36:57
anarchism/-2020-05-30 22:36:57
anthy/-2020-05-30 22:36:57
antiword/-2020-05-30 22:36:57
ant-contrib/-2020-05-30 22:36:57
annotation-indexer/-2020-05-30 22:36:57
anypaper/-2020-05-30 22:36:57
antlr3/-2020-05-30 22:36:57
anyremote/-2020-05-30 22:36:57
antigrav/-2020-05-30 22:36:57
antlr/-2020-05-30 22:36:57
anytun/-2020-05-30 22:36:57
antennavis/-2020-05-30 22:36:57
ant/-2020-05-30 22:36:57
analitza/-2020-05-30 22:36:57
animal-sniffer/-2020-05-30 22:36:57
apbs/-2020-05-30 22:36:58
apgdiff/-2020-05-30 22:36:58
app-install-data-ubuntu/-2020-05-30 22:36:58
aolserver4/-2020-05-30 22:36:58
apmd/-2020-05-30 22:36:58
aplus-fsf/-2020-05-30 22:36:58
apache-pom/-2020-05-30 22:36:58
apcupsd/-2020-05-30 22:36:58
apel/-2020-05-30 22:36:58
apertium/-2020-05-30 22:36:58
apg/-2020-05-30 22:36:58
aolserver4-nsxml/-2020-05-30 22:36:58
apcalc/-2020-05-30 22:36:58
aolserver4-nspostgres/-2020-05-30 22:36:58
apache-mime4j/-2020-05-30 22:36:58
apache-mod-auth-ntlm-winbind/-2020-05-30 22:36:58
apache-upload-progress-module/-2020-05-30 22:36:58
apr/-2020-05-30 22:36:59
aprsd/-2020-05-30 22:36:59
approx/-2020-05-30 22:36:59
apparmor/-2020-05-30 22:36:59
apper/-2020-05-30 22:36:59
aprsdigi/-2020-05-30 22:36:59
apr-util/-2020-05-30 22:36:59
apron/-2020-05-30 22:36:59
appmenu-qt/-2020-05-30 22:36:59
apport-symptoms/-2020-05-30 22:36:59
apt-build/-2020-05-30 22:37:00
arduino-mk/-2020-05-30 22:37:00
args4j/-2020-05-30 22:37:00
aranym/-2020-05-30 22:37:00
apt-cacher/-2020-05-30 22:37:00
ardentryst/-2020-05-30 22:37:00
apt-p2p/-2020-05-30 22:37:00
arandr/-2020-05-30 22:37:00
apt-listchanges/-2020-05-30 22:37:00
apturl/-2020-05-30 22:37:00
aptfs/-2020-05-30 22:37:00
arduino/-2020-05-30 22:37:00
apvlv/-2020-05-30 22:37:00
apt-dpkg-ref/-2020-05-30 22:37:00
ardour/-2020-05-30 22:37:00
aptoncd/-2020-05-30 22:37:00
apt-rdepends/-2020-05-30 22:37:00
arc/-2020-05-30 22:37:00
aptitude/-2020-05-30 22:37:00
apt-xapian-index/-2020-05-30 22:37:00
apt-move/-2020-05-30 22:37:00
arename/-2020-05-30 22:37:00
apt-clone/-2020-05-30 22:37:00
apt-mirror/-2020-05-30 22:37:00
archivemount/-2020-05-30 22:37:00
apticron/-2020-05-30 22:37:00
aqualung/-2020-05-30 22:37:00
apt-setup/-2020-05-30 22:37:00
apt-file/-2020-05-30 22:37:00
aqemu/-2020-05-30 22:37:00
ara/-2020-05-30 22:37:00
apt-dater/-2020-05-30 22:37:00
apt/-2020-05-30 22:37:00
aqsis/-2020-05-30 22:37:00
apt-btrfs-snapshot/-2020-05-30 22:37:00
apt-show-versions/-2020-05-30 22:37:00
apt-src/-2020-05-30 22:37:00
arbtt/-2020-05-30 22:37:00
apt-cacher-ng/-2020-05-30 22:37:00
ardesia/-2020-05-30 22:37:00
apt-watch/-2020-05-30 22:37:00
argtable2/-2020-05-30 22:37:00
apt-offline/-2020-05-30 22:37:00
armadillo/-2020-05-30 22:37:01
asm3/-2020-05-30 22:37:01
asc/-2020-05-30 22:37:01
aspell-mr/-2020-05-30 22:37:01
arj/-2020-05-30 22:37:01
as31/-2020-05-30 22:37:01
aspell/-2020-05-30 22:37:01
argyll/-2020-05-30 22:37:01
ascii/-2020-05-30 22:37:01
aspell-ar-large/-2020-05-30 22:37:01
assimp/-2020-05-30 22:37:01
aspell-hy/-2020-05-30 22:37:01
aspell-te/-2020-05-30 22:37:01
aspcud/-2020-05-30 22:37:01
aspell-ta/-2020-05-30 22:37:01
aspell-ku/-2020-05-30 22:37:01
asio/-2020-05-30 22:37:01
aspell-ro/-2020-05-30 22:37:01
asic0x/-2020-05-30 22:37:01
ario/-2020-05-30 22:37:01
aspell-am/-2020-05-30 22:37:01
asedriveiiie/-2020-05-30 22:37:01
arpwatch/-2020-05-30 22:37:01
asmail/-2020-05-30 22:37:01
asmon/-2020-05-30 22:37:01
arista/-2020-05-30 22:37:01
arpack/-2020-05-30 22:37:01
aspell-gu/-2020-05-30 22:37:01
asclock/-2020-05-30 22:37:01
aria2/-2020-05-30 22:37:01
asis/-2020-05-30 22:37:01
asciidoc/-2020-05-30 22:37:01
arkose/-2020-05-30 22:37:01
ascdc/-2020-05-30 22:37:01
arno-iptables-firewall/-2020-05-30 22:37:01
aspell-or/-2020-05-30 22:37:01
asm2/-2020-05-30 22:37:01
aspell-bn/-2020-05-30 22:37:01
aspectc++/-2020-05-30 22:37:01
aspell-ar/-2020-05-30 22:37:01
armada-backlight/-2020-05-30 22:37:01
aspell-he/-2020-05-30 22:37:01
aspell-fa/-2020-05-30 22:37:01
armhf-cross-toolchain-base/-2020-05-30 22:37:01
armel-cross-toolchain-base/-2020-05-30 22:37:01
aspell-cs/-2020-05-30 22:37:01
aroarfw/-2020-05-30 22:37:01
arp-scan/-2020-05-30 22:37:01
arpack++/-2020-05-30 22:37:01
arpon/-2020-05-30 22:37:01
aspell-en/-2020-05-30 22:37:01
artha/-2020-05-30 22:37:01
arping/-2020-05-30 22:37:01
atinject-jsr330/-2020-05-30 22:37:02
asymptote/-2020-05-30 22:37:02
asterisk-core-sounds/-2020-05-30 22:37:02
async-http-client/-2020-05-30 22:37:02
at-spi2-atk/-2020-05-30 22:37:02
atk1.0/-2020-05-30 22:37:02
aterm/-2020-05-30 22:37:02
astyle/-2020-05-30 22:37:02
atheist/-2020-05-30 22:37:02
at/-2020-05-30 22:37:02
astk/-2020-05-30 22:37:02
atkmm1.6/-2020-05-30 22:37:02
asused/-2020-05-30 22:37:02
asterisk-prompt-de/-2020-05-30 22:37:02
at-spi2-core/-2020-05-30 22:37:02
atlas/-2020-05-30 22:37:02
atanks/-2020-05-30 22:37:02
asterisk/-2020-05-30 22:37:02
atdgen/-2020-05-30 22:37:02
astronomical-almanac/-2020-05-30 22:37:02
asterisk-prompt-it/-2020-05-30 22:37:02
attr/-2020-05-30 22:37:03
authres/-2020-05-30 22:37:03
atom4/-2020-05-30 22:37:03
autoconf-archive/-2020-05-30 22:37:03
aufs-tools/-2020-05-30 22:37:03
atomix/-2020-05-30 22:37:03
audtty/-2020-05-30 22:37:03
atop/-2020-05-30 22:37:03
ats-lang-anairiats/-2020-05-30 22:37:03
audacity/-2020-05-30 22:37:03
atool/-2020-05-30 22:37:03
augeas/-2020-05-30 22:37:03
audacious-plugins/-2020-05-30 22:37:03
audioread/-2020-05-30 22:37:03
audio-convert/-2020-05-30 22:37:03
auto-apt/-2020-05-30 22:37:03
audit/-2020-05-30 22:37:03
audiopreview/-2020-05-30 22:37:03
atlas-cpp/-2020-05-30 22:37:03
auctex/-2020-05-30 22:37:03
autoconf/-2020-05-30 22:37:03
audacious/-2020-05-30 22:37:03
audex/-2020-05-30 22:37:03
auto-multiple-choice/-2020-05-30 22:37:03
auto-install-el/-2020-05-30 22:37:03
aubio/-2020-05-30 22:37:03
attica/-2020-05-30 22:37:03
authbind/-2020-05-30 22:37:03
atris/-2020-05-30 22:37:03
audiolink/-2020-05-30 22:37:03
audiofile/-2020-05-30 22:37:03
autoconf2.13/-2020-05-30 22:37:03
automake1.11/-2020-05-30 22:37:04
autogen/-2020-05-30 22:37:04
autotools-dev/-2020-05-30 22:37:04
autoconf2.59/-2020-05-30 22:37:04
autounit/-2020-05-30 22:37:04
autodock-vina/-2020-05-30 22:37:04
avbin/-2020-05-30 22:37:04
avarice/-2020-05-30 22:37:04
autocutsel/-2020-05-30 22:37:04
avfs/-2020-05-30 22:37:04
avalon-framework/-2020-05-30 22:37:04
autodocksuite/-2020-05-30 22:37:04
autopostgresqlbackup/-2020-05-30 22:37:04
avahi/-2020-05-30 22:37:04
automake1.9/-2020-05-30 22:37:04
autotalent/-2020-05-30 22:37:04
autojump/-2020-05-30 22:37:04
automoc/-2020-05-30 22:37:04
avahi-sharp/-2020-05-30 22:37:04
autodns-dhcp/-2020-05-30 22:37:04
automake1.10/-2020-05-30 22:37:04
autorenamer/-2020-05-30 22:37:04
automysqlbackup/-2020-05-30 22:37:04
autokey/-2020-05-30 22:37:04
autotrace/-2020-05-30 22:37:04
autossh/-2020-05-30 22:37:04
autopkgtest/-2020-05-30 22:37:04
avelsieve/-2020-05-30 22:37:04
awl/-2020-05-30 22:37:05
avifile/-2020-05-30 22:37:05
ax25mail-utils/-2020-05-30 22:37:05
awesome/-2020-05-30 22:37:05
avra/-2020-05-30 22:37:05
awffull/-2020-05-30 22:37:05
away/-2020-05-30 22:37:05
axis2c/-2020-05-30 22:37:05
avrdude/-2020-05-30 22:37:05
awesome-extra/-2020-05-30 22:37:05
aweather/-2020-05-30 22:37:05
axis/-2020-05-30 22:37:05
ax25-tools/-2020-05-30 22:37:05
avr-libc/-2020-05-30 22:37:05
ax25-apps/-2020-05-30 22:37:05
axiom/-2020-05-30 22:37:05
avogadro/-2020-05-30 22:37:05
awstats/-2020-05-30 22:37:05
azr3-jack/-2020-05-30 22:37:06
akregator/-2020-06-06 05:05:28
autofs/-2020-07-09 05:09:08
alembic/-2020-07-18 05:00:55
apache2/-2020-08-15 05:20:45
aiohttp-socks/-2020-08-17 05:19:44
awscli/-2020-08-28 05:16:47
ark/-2020-09-03 05:18:49
apache-log4j1.2/-2020-09-16 05:01:52
apng2gif/-2020-09-16 05:01:53
atftp/-2020-09-24 05:01:56
aptdaemon/-2020-09-25 16:25:59
ansible/-2020-10-07 05:14:55
apport/-2020-10-08 05:13:55